This is the latest recevied weather packets stored in our database for station/object W7TTE. If no packets are shown the sender has not sent any weather packets the latest 10 day(s).
| Time | Temp. | Humidity | Pressure | Rain* | Wind** | Luminosity | Snow |
|---|---|---|---|---|---|---|---|
| 1777408184 | 28.33° C | 19% | 1017.7 hPa | 0 mm | - | 753 W/m² | - |
| 1777407879 | 28.33° C | 20% | 1017.6 hPa | 0 mm | - | 760 W/m² | - |
| 1777407578 | 28.33° C | 20% | 1017.6 hPa | 0 mm | - | 771 W/m² | - |
| 1777407277 | 28.33° C | 20% | 1017.5 hPa | 0 mm | - | 750 W/m² | - |
| 1777406971 | 28.33° C | 21% | 1017.6 hPa | 0 mm | - | 771 W/m² | - |
| 1777406671 | 27.78° C | 20% | 1017.6 hPa | 0 mm | - | 780 W/m² | - |
| 1777406367 | 27.78° C | 21% | 1017.7 hPa | 0 mm | - | 780 W/m² | - |
| 1777406067 | 27.78° C | 20% | 1017.8 hPa | 0 mm | - | 783 W/m² | - |
| 1777405763 | 27.78° C | 21% | 1017.8 hPa | 0 mm | - | 754 W/m² | - |
| 1777405460 | 27.22° C | 21% | 1018.2 hPa | 0 mm | - | 784 W/m² | - |
| 1777405158 | 27.78° C | 21% | 1017.9 hPa | 0 mm | - | 784 W/m² | - |
| 1777404855 | 28.33° C | 20% | 1018.1 hPa | 0 mm | - | 786 W/m² | - |
| 1777404552 | 27.78° C | 21% | 1018.1 hPa | 0 mm | - | 784 W/m² | - |
| 1777404248 | 27.22° C | 21% | 1018.2 hPa | 0 mm | - | 787 W/m² | - |
| 1777403945 | 27.22° C | 21% | 1018.3 hPa | 0 mm | - | 784 W/m² | - |
| 1777403644 | 26.67° C | 21% | 1018.3 hPa | 0 mm | - | 784 W/m² | - |
| 1777403343 | 26.67° C | 21% | 1018.6 hPa | 0 mm | - | 784 W/m² | - |
| 1777403038 | 26.67° C | 20% | 1018.5 hPa | 0 mm | - | 784 W/m² | - |
| 1777402734 | 26.67° C | 19% | 1018.7 hPa | 0 mm | - | 784 W/m² | - |
| 1777402430 | 26.11° C | 20% | 1018.5 hPa | 0 mm | - | 784 W/m² | - |
| 1777402128 | 26.67° C | 21% | 1018.7 hPa | 0 mm | - | 778 W/m² | - |
| 1777401823 | 26.11° C | 21% | 1018.7 hPa | 0 mm | - | 775 W/m² | - |
| 1777401523 | 26.11° C | 22% | 1018.7 hPa | 0 mm | - | 770 W/m² | - |
| 1777401218 | 26.11° C | 22% | 1018.8 hPa | 0 mm | - | 766 W/m² | - |
| 1777400914 | 25.56° C | 22% | 1018.9 hPa | 0 mm | - | 763 W/m² | - |
* Rain latest hour (hover to see other rain measurements)
** Current wind speed in m/s (hover to see current wind gust speed)